Frenchville, ME

1:14 AM EDT on May 24, 2017 (GMT -0400)
Northern Aroostook Regional

Weather History for KFVE - September, 2013

Change the Weather History Date:

Friday, September 6, 2013

  Actual Average Record
Temperature  
Mean Temperature 50 °F 57 °F  
Max Temperature 65 °F 67 °F 83 °F (2015)
Min Temperature 35 °F 48 °F 35 °F (2000)
Degree Days  
Heating Degree Days 15    
Month to date heating degree days 52  
Since 1 July heating degree days 215  
Cooling Degree Days 0    
Month to date cooling degree days 3  
Year to date cooling degree days 138  
Moisture  
Dew Point 37 °F    
Average Humidity 61    
Maximum Humidity 93    
Minimum Humidity 34    
Precipitation  
Precipitation 0.00 in 0.11 in 0.33 in (2014)
Month to date precipitation 1.03 0.75  
Year to date precipitation 25.54 22.81  
Sea Level Pressure  
Sea Level Pressure 29.99 in    
Wind  
Wind Speed 8 mph (WSW)    
Max Wind Speed 17 mph    
Max Gust Speed 24 mph    
Visibility 10 miles    
Events      
T = Trace of Precipitation, MM = Missing Value Source: NWS Daily Summary

Daily Weather History Graph

Daily Weather History Graph

Search for Another Location

Airport or City:

Trip Planner

Search our weather history database for the weather conditions in past years. The results will help you decide how hot, cold, wet, or windy it might be!

Date:

Astronomy

Sep. 06, 2013 Rise Set
Actual Time 5:59 AM EDT 7:02 PM EDT
Civil Twilight 5:27 AM EDT 7:34 PM EDT
Nautical Twilight 4:50 AM EDT 8:11 PM EDT
Astronomical Twilight 4:10 AM EDT 8:51 PM EDT
Moon 7:16 AM EDT (9/6) 7:14 PM EDT (9/6)
Length of Visible Light 14h 06m
Length of Day
13h 03m
New Moon, 1% of the Moon is Illuminated
Sep 6
New Moon
Sep 12
First Quarter
Sep 19
Full
Sep 26
Last Quarter
Oct 4
New

Hourly Weather History & Observations

Time (EDT) Temp. Windchill Dew Point Humidity Pressure Visibility Wind Dir Wind Speed Gust Speed Precip Events Conditions
12:53 AM 39.0 °F 34.0 °F 34.0 °F 82% 30.05 in 10.0 mi WSW 6.9 mph - N/A   Clear
1:53 AM 39.0 °F 35.7 °F 34.0 °F 82% 30.04 in 10.0 mi West 4.6 mph - N/A   Clear
2:53 AM 37.0 °F - 35.1 °F 93% 30.05 in 10.0 mi Calm Calm - N/A   Clear
3:53 AM 37.9 °F - 35.1 °F 89% 30.05 in 10.0 mi Calm Calm - N/A   Clear
4:53 AM 37.0 °F 34.5 °F 34.0 °F 89% 30.04 in 10.0 mi WNW 3.5 mph - N/A   Clear
5:53 AM 37.0 °F 32.4 °F 34.0 °F 89% 30.06 in 10.0 mi WSW 5.8 mph - N/A   Mostly Cloudy
6:53 AM 37.0 °F 33.3 °F 35.1 °F 93% 30.07 in 10.0 mi SW 4.6 mph - N/A   Overcast
7:53 AM 41.0 °F 39.0 °F 37.0 °F 86% 30.06 in 10.0 mi WSW 3.5 mph - N/A   Clear
8:53 AM 46.0 °F 43.1 °F 37.9 °F 73% 30.07 in 10.0 mi WSW 5.8 mph - N/A   Clear
9:53 AM 53.1 °F - 37.0 °F 55% 30.06 in 10.0 mi West 13.8 mph 19.6 mph N/A   Clear
10:53 AM 55.9 °F - 37.0 °F 49% 30.05 in 10.0 mi WSW 9.2 mph 16.1 mph N/A   Clear
11:53 AM 59.0 °F - 36.0 °F 42% 30.04 in 10.0 mi WSW 12.7 mph - N/A   Clear
12:53 PM 61.0 °F - 36.0 °F 39% 30.01 in 10.0 mi WSW 11.5 mph 16.1 mph N/A   Clear
1:53 PM 63.0 °F - 36.0 °F 37% 29.99 in 10.0 mi WSW 13.8 mph 19.6 mph N/A   Clear
2:53 PM 64.0 °F - 35.1 °F 34% 29.97 in 10.0 mi WSW 12.7 mph 21.9 mph N/A   Clear
3:53 PM 64.0 °F - 36.0 °F 35% 29.95 in 10.0 mi SW 9.2 mph 19.6 mph N/A   Clear
4:53 PM 63.0 °F - 35.1 °F 35% 29.93 in 10.0 mi SW 12.7 mph 20.7 mph N/A   Clear
5:53 PM 62.1 °F - 35.1 °F 37% 29.91 in 10.0 mi SW 10.4 mph - N/A   Clear
6:53 PM 59.0 °F - 37.9 °F 46% 29.91 in 10.0 mi SSW 11.5 mph - N/A   Clear
7:53 PM 55.9 °F - 37.9 °F 51% 29.92 in 10.0 mi SW 8.1 mph - N/A   Clear
8:53 PM 55.9 °F - 39.0 °F 53% 29.93 in 10.0 mi SW 10.4 mph 19.6 mph N/A   Clear
9:53 PM 54.0 °F - 39.9 °F 59% 29.90 in 10.0 mi SW 11.5 mph 19.6 mph N/A   Clear
10:53 PM 53.1 °F - 41.0 °F 64% 29.89 in 10.0 mi SW 8.1 mph - N/A   Clear
11:53 PM 54.0 °F - 42.1 °F 64% 29.86 in 10.0 mi WSW 9.2 mph - N/A   Clear